METEOR 2-11 DEB, 60005

Orbit data source: Space-Track

METEOR 2-11 DEB, 60005 is space debris in LEO originally from a launch on Thu, 05 Jul 1984 UTC launched from the Plesetsk Missile And Space Complex (PKMTR). Debris objects in space refer to the collection of defunct objects orbiting the Earth. Examples of debris include non-operational satellites, rocket bodies, and fragments generated from explosions, collisions, or faulty payload assembly.

Loading next visibility...
Identifier
60005, 1984-072AA
Orbit
LEO
Country
Flag of CISCIS
Related business
Manufacturer
Unknown
Mission
Spacecraft
Bus & Motor
Unknown
Mass
Unknown
Launch date (UTC)
1984-07-05 (42 years ago)
Launch vehicle
Unknown
Launch site
Plesetsk Missile And Space Complex (PKMTR)
Object type
Payload
Rocket body
Debris
Shape & HBR
Unknown shape, 0.1 m
Radar Cross Section
Small (<0.1 m²)

Expand to show TLE details & history
Last TLE update: 1 week ago

TLE from 1 week ago
0 METEOR 2-11 DEB
1 60005U 84072AA  26201.67975342  .00001192  00000-0  78269-3 0  9994
2 60005  82.5214 333.9860 0025472 217.0790 142.8621 14.01119177441615
Epoch: 2026-07-20T16:18Z
TLE epoch observation values (Epoch: 2026-07-20T16:18:50.695Z)
Latitude
-0°
Longitude
150.81444°
Altitude
907.626 km
Speed
7.391 km/s
True Right ascension
22h 15m 56s
True Declination
0° 00' 00"
Sunlit
Object was in full shadow at epoch
Visualization orbit readout
Latitude
Unknown
Longitude
Unknown
Altitude
Unknown
Speed
Unknown
Apparent Right ascension
Unknown
Apparent Declination
Unknown
Sunlit
N/A
Visualization observer readout
Local Sidereal Time
05:26:02
Azimuth
Unknown
Elevation
Unknown
Doppler factor
Unknown
Orbital elements
Apogee altitude
905.558 km
Perigee altitude
868.546 km
Semi-major axis
7,265.189 km
Eccentricity
0.00255
Inclination
82.5214°
RAAN
333.986°
Arg. of periapsis
217.079°
True anomaly
143.03788°
Mean anomaly
142.8621°
Eccentric anomaly
142.95003°
Mean motion
3.50488 °/min
Orbital period
102.71 mins
BSTAR
0.00078269
Loading maneuver chart data...
Computing Atmospheric mass density...
Loading historical data...
Loading historical data...
Loading historical data...
Loading historical data...
Loading historical data...
Loading historical data...
Loading historical data...

Documentation

Showing up to 5 results
|